Погода в Вакканае

Япония     45°24′50″N   141°40′28″E
темп.,
°C
ветер,
м/с
пор.,
м/с
влажн.,
%
обл.,
%
осадки,
мм/ч
давл.,
гПа
погр.,
м
6 марта, сб
сб600:00−2ссз111292100 3.1 1013720
03:00−5сз131474100 4.1 10151018
06:00−6зсз9872100 0.1 10181121
09:00−8ссв91072100 0.9 10211207
12:00−8с8871100 0.3 10221153
15:00−8с4560100 0.3 10221256
18:00−7зсз8979100 0.5 10231047
21:00−7зсз8963100 0.7 10241535
7 марта, вс
вс700:00−6зсз101167100 0.1 10231673
03:00−7зсз101272100 0.3 10241502
06:00−6зсз91063100 0.1 10251561
09:00−5з8958100 0.2 10251454
12:00−4з91264100 0.1 10241505
15:00−3зюз111265100 0.2 10221457
18:00−4з111272100 0.1 10221327
21:00−3з81066100 0.1 10211388
8 марта, пн
пн800:00−3з7866100 0.1 10201187
03:00−2з7858100 0.2 10191331
06:00−2зсз6757100 0.1 10191387
09:00−3ссз6777100 0.3 1021915
12:00−3сз8863100 0.1 10221253
15:00−2зсз6857100 0.2 10221385
18:00−2з785769 0.0 10231151
21:00−1зюз896151 0.0 1024980
9 марта, вт
вт900:000зюз911660 0.0 1022996
03:000юз1112720 0.0 10221003
06:00+1юз11137175 0.0 10211133
09:00+1юз13157385 0.0 10201160
12:00+2юз141773100 0.0 10191098
15:00+2юз141875100 0.0 10161143
18:00+2юз141878100 0.1 10141094
21:00+2юз152083100 0.1 1012985
10 марта, ср
ср1000:00+2ююз162196100 0.8 10091095
03:00+2ююз151897100 4.8 1006849
06:00+1ююз111397100 2.8 1005586
09:00+1з91194100 6.1 1006698
12:00−1ссз151886100 1.4 1007973
15:00−2ссз182283100 1.5 10101116
18:00−2ссз161983100 0.2 10141258
21:00−1ссз151775100 0.3 10181277